Time,TemperatureF,DewpointF,PressureIn,WindDirection,WindDirectionDegrees,WindSpeedMPH,WindSpeedGustMPH,Humidity,HourlyPrecipIn,Conditions,Clouds,dailyrainin,SolarRadiationWatts/m^2,SoftwareType,DateUTC
2013-07-16 00:00:00,55.0,-99.9,20.00,WNW,296,0.0,0.0,255,0.00,,,0.00,0,Wunderground v.1.15,2013-07-16 07:00:00,
2013-07-16 00:10:00,54.0,-99.9,20.00,WNW,296,0.0,0.0,255,0.00,,,0.00,0,Wunderground v.1.15,2013-07-16 07:10:00,
2013-07-16 00:20:00,53.8,-99.9,20.00,WNW,300,0.0,0.0,255,0.00,,,0.00,0,Wunderground v.1.15,2013-07-16 07:20:00,
2013-07-16 00:25:00,54.4,-99.9,20.00,WNW,300,0.0,0.0,255,0.00,,,0.00,0,Wunderground v.1.15,2013-07-16 07:25:00,
2013-07-16 00:35:00,54.2,-99.9,19.99,WNW,300,0.0,0.0,255,0.00,,,0.00,0,Wunderground v.1.15,2013-07-16 07:35:00,
2013-07-16 00:45:00,53.8,-99.9,20.00,WNW,300,0.0,0.0,255,0.00,,,0.00,0,Wunderground v.1.15,2013-07-16 07:45:00,
2013-07-16 00:55:00,53.7,-99.9,20.00,WNW,300,2.0,2.0,255,0.00,,,0.00,0,Wunderground v.1.15,2013-07-16 07:55:00,
2013-07-16 01:00:00,53.7,-99.9,20.00,WNW,300,2.0,2.0,255,0.00,,,0.00,0,Wunderground v.1.15,2013-07-16 08:00:00,
2013-07-16 01:10:00,52.6,-99.9,20.00,WNW,300,2.0,2.0,255,0.00,,,0.00,0,Wunderground v.1.15,2013-07-16 08:10:00,
2013-07-16 01:20:00,52.9,-99.9,20.00,WNW,300,2.0,2.0,255,0.00,,,0.00,0,Wunderground v.1.15,2013-07-16 08:20:00,
2013-07-16 01:30:00,53.2,-99.9,20.00,WNW,300,4.0,4.0,255,0.00,,,0.00,0,Wunderground v.1.15,2013-07-16 08:30:00,
2013-07-16 01:40:00,52.0,-99.9,20.00,WNW,300,2.0,2.0,255,0.00,,,0.00,0,Wunderground v.1.15,2013-07-16 08:40:00,
2013-07-16 01:45:00,51.4,-99.9,20.00,WNW,300,1.0,2.0,255,0.00,,,0.00,0,Wunderground v.1.15,2013-07-16 08:45:00,
2013-07-16 01:55:00,52.4,-99.9,20.00,WNW,300,0.0,0.0,255,0.00,,,0.00,0,Wunderground v.1.15,2013-07-16 08:55:00,
2013-07-16 02:00:00,52.5,-99.9,20.00,WNW,300,1.0,1.0,255,0.00,,,0.00,0,Wunderground v.1.15,2013-07-16 09:00:00,
2013-07-16 02:10:00,52.5,-99.9,19.99,WNW,300,2.0,2.0,255,0.00,,,0.00,0,Wunderground v.1.15,2013-07-16 09:10:00,
2013-07-16 02:20:00,51.8,-99.9,20.00,WNW,300,0.0,0.0,255,0.00,,,0.00,0,Wunderground v.1.15,2013-07-16 09:20:00,
2013-07-16 02:30:00,51.3,-99.9,20.00,WNW,300,0.0,0.0,255,0.00,,,0.00,0,Wunderground v.1.15,2013-07-16 09:30:00,
2013-07-16 02:40:00,51.4,-99.9,20.00,WNW,300,1.0,1.0,255,0.00,,,0.00,0,Wunderground v.1.15,2013-07-16 09:40:00,
2013-07-16 02:50:00,50.7,-99.9,20.00,WNW,300,1.0,1.0,255,0.00,,,0.00,0,Wunderground v.1.15,2013-07-16 09:50:00,
2013-07-16 03:00:00,50.9,-99.9,20.00,NW,313,3.0,3.0,255,0.00,,,0.00,0,Wunderground v.1.15,2013-07-16 10:00:00,
2013-07-16 03:10:00,50.8,-99.9,20.00,NW,319,2.0,2.0,255,0.00,,,0.00,0,Wunderground v.1.15,2013-07-16 10:10:00,
2013-07-16 03:15:00,50.9,-99.9,20.00,NW,319,3.0,3.0,255,0.00,,,0.00,0,Wunderground v.1.15,2013-07-16 10:15:00,
2013-07-16 03:25:00,50.5,-99.9,20.00,NW,319,0.0,3.0,255,0.00,,,0.00,0,Wunderground v.1.15,2013-07-16 10:25:00,
2013-07-16 03:35:00,49.9,-99.9,20.00,NW,319,0.0,1.0,255,0.00,,,0.00,0,Wunderground v.1.15,2013-07-16 10:35:00,
2013-07-16 03:40:00,49.6,-99.9,20.00,NW,319,2.0,2.0,255,0.00,,,0.00,0,Wunderground v.1.15,2013-07-16 10:40:00,
2013-07-16 03:50:00,49.4,-99.9,20.00,NW,319,3.0,3.0,255,0.00,,,0.00,0,Wunderground v.1.15,2013-07-16 10:50:00,
2013-07-16 04:00:00,49.2,-99.9,20.00,NW,319,3.0,3.0,255,0.00,,,0.00,0,Wunderground v.1.15,2013-07-16 11:00:00,
2013-07-16 04:10:00,49.1,-99.9,20.00,NW,319,2.0,2.0,255,0.00,,,0.00,0,Wunderground v.1.15,2013-07-16 11:10:00,
2013-07-16 04:20:00,49.1,-99.9,20.00,NW,319,2.0,2.0,255,0.00,,,0.00,0,Wunderground v.1.15,2013-07-16 11:20:00,
2013-07-16 04:30:00,49.0,-99.9,20.00,NW,319,2.0,2.0,255,0.00,,,0.00,0,Wunderground v.1.15,2013-07-16 11:30:00,
2013-07-16 04:35:00,49.0,-99.9,20.00,NW,319,1.0,2.0,255,0.00,,,0.00,0,Wunderground v.1.15,2013-07-16 11:35:00,
2013-07-16 04:45:00,49.0,-99.9,20.00,NW,320,0.0,3.0,255,0.00,,,0.00,0,Wunderground v.1.15,2013-07-16 11:45:00,
2013-07-16 04:55:00,48.3,-99.9,20.00,NW,320,0.0,3.0,255,0.00,,,0.00,0,Wunderground v.1.15,2013-07-16 11:55:00,
2013-07-16 05:00:00,48.5,-99.9,20.00,NW,320,1.0,1.0,255,0.00,,,0.00,0,Wunderground v.1.15,2013-07-16 12:00:00,
2013-07-16 05:10:00,47.8,-99.9,20.00,NW,320,0.0,0.0,255,0.00,,,0.00,0,Wunderground v.1.15,2013-07-16 12:10:00,
2013-07-16 05:20:00,48.0,-99.9,20.00,NW,320,0.0,0.0,255,0.00,,,0.00,0,Wunderground v.1.15,2013-07-16 12:20:00,
2013-07-16 05:30:00,47.4,-99.9,20.00,NW,320,0.0,0.0,255,0.00,,,0.00,0,Wunderground v.1.15,2013-07-16 12:30:00,
2013-07-16 05:40:00,48.1,-99.9,20.00,NW,320,0.0,0.0,255,0.00,,,0.00,0,Wunderground v.1.15,2013-07-16 12:40:00,
2013-07-16 05:50:00,50.9,-99.9,20.00,NW,320,1.0,1.0,255,0.00,,,0.00,0,Wunderground v.1.15,2013-07-16 12:50:00,
2013-07-16 06:00:00,53.5,-99.9,20.00,NW,320,0.0,0.0,255,0.00,,,0.00,0,Wunderground v.1.15,2013-07-16 13:00:00,
2013-07-16 06:10:00,56.4,-99.9,20.00,NW,320,0.0,0.0,255,0.00,,,0.00,0,Wunderground v.1.15,2013-07-16 13:10:00,
2013-07-16 06:20:00,59.8,-99.9,20.00,NW,320,0.0,0.0,255,0.00,,,0.00,0,Wunderground v.1.15,2013-07-16 13:20:00,
2013-07-16 06:25:00,62.0,-99.9,20.00,NW,320,0.0,0.0,255,0.00,,,0.00,0,Wunderground v.1.15,2013-07-16 13:25:00,
2013-07-16 06:35:00,68.3,-99.9,20.00,NW,320,0.0,0.0,255,0.00,,,0.00,0,Wunderground v.1.15,2013-07-16 13:35:00,
2013-07-16 06:45:00,71.9,-99.9,20.00,NW,320,3.0,3.0,255,0.00,,,0.00,0,Wunderground v.1.15,2013-07-16 13:45:00,
2013-07-16 06:55:00,73.7,-99.9,20.00,NW,320,2.0,2.0,255,0.00,,,0.00,0,Wunderground v.1.15,2013-07-16 13:55:00,
2013-07-16 07:00:00,75.8,-99.9,20.00,NW,320,4.0,4.0,255,0.00,,,0.00,0,Wunderground v.1.15,2013-07-16 14:00:00,
2013-07-16 07:10:00,77.0,-99.9,20.00,NW,319,3.0,3.0,255,0.00,,,0.00,0,Wunderground v.1.15,2013-07-16 14:10:00,
2013-07-16 07:20:00,79.8,-99.9,20.00,NW,319,1.0,1.0,255,0.00,,,0.00,0,Wunderground v.1.15,2013-07-16 14:20:00,
2013-07-16 07:30:00,73.7,-99.9,20.00,NW,319,2.0,2.0,255,0.00,,,0.00,0,Wunderground v.1.15,2013-07-16 14:30:00,
2013-07-16 07:40:00,80.4,-99.9,20.00,NW,320,0.0,0.0,255,0.00,,,0.00,0,Wunderground v.1.15,2013-07-16 14:40:00,
2013-07-16 07:50:00,86.2,-99.9,20.00,NW,319,0.0,0.0,255,0.00,,,0.00,0,Wunderground v.1.15,2013-07-16 14:50:00,
2013-07-16 08:00:00,84.4,-99.9,20.00,NW,319,0.0,0.0,255,0.00,,,0.00,0,Wunderground v.1.15,2013-07-16 15:00:00,
2013-07-16 08:10:00,81.2,-99.9,20.00,WSW,248,3.0,3.0,255,0.00,,,0.00,0,Wunderground v.1.15,2013-07-16 15:10:00,
2013-07-16 08:20:00,84.5,-99.9,20.00,SW,226,3.0,3.0,255,0.00,,,0.00,0,Wunderground v.1.15,2013-07-16 15:20:00,
2013-07-16 08:30:00,77.5,-99.9,20.00,South,171,3.0,3.0,255,0.00,,,0.00,0,Wunderground v.1.15,2013-07-16 15:30:00,
2013-07-16 08:40:00,80.3,-99.9,20.00,South,183,3.0,3.0,255,0.00,,,0.00,0,Wunderground v.1.15,2013-07-16 15:40:00,
2013-07-16 08:50:00,82.9,-99.9,20.00,South,183,1.0,1.0,255,0.00,,,0.00,0,Wunderground v.1.15,2013-07-16 15:50:00,
2013-07-16 09:00:00,85.2,-99.9,20.00,South,183,3.0,3.0,255,0.00,,,0.00,0,Wunderground v.1.15,2013-07-16 16:00:00,
2013-07-16 09:10:00,86.2,-99.9,20.00,South,182,1.0,1.0,255,0.00,,,0.00,0,Wunderground v.1.15,2013-07-16 16:10:00,
2013-07-16 09:15:00,84.1,-99.9,20.00,South,182,0.0,1.0,255,0.00,,,0.00,0,Wunderground v.1.15,2013-07-16 16:15:00,
2013-07-16 09:25:00,91.3,-99.9,20.00,WSW,257,3.0,3.0,255,0.00,,,0.00,0,Wunderground v.1.15,2013-07-16 16:25:00,
2013-07-16 09:35:00,90.9,-99.9,20.00,WSW,241,5.0,5.0,255,0.00,,,0.00,0,Wunderground v.1.15,2013-07-16 16:35:00,
2013-07-16 09:40:00,83.6,-99.9,20.00,SSW,206,5.0,5.0,255,0.00,,,0.00,0,Wunderground v.1.15,2013-07-16 16:40:00,
2013-07-16 09:50:00,82.4,-99.9,20.00,South,183,2.0,2.0,255,0.00,,,0.00,0,Wunderground v.1.15,2013-07-16 16:50:00,
2013-07-16 10:00:00,79.0,-99.9,20.00,South,191,2.0,2.0,255,0.00,,,0.00,0,Wunderground v.1.15,2013-07-16 17:00:00,
2013-07-16 10:10:00,79.2,-99.9,20.00,SSW,194,5.0,5.0,255,0.00,,,0.00,0,Wunderground v.1.15,2013-07-16 17:10:00,
2013-07-16 10:20:00,82.3,-99.9,20.00,SW,215,4.0,4.0,255,0.00,,,0.00,0,Wunderground v.1.15,2013-07-16 17:20:00,
2013-07-16 10:30:00,84.6,-99.9,20.00,WSW,247,6.0,6.0,255,0.00,,,0.00,0,Wunderground v.1.15,2013-07-16 17:30:00,
2013-07-16 10:35:00,84.7,-99.9,20.00,SW,231,7.0,7.0,255,0.00,,,0.00,0,Wunderground v.1.15,2013-07-16 17:35:00,
2013-07-16 10:45:00,85.1,-99.9,20.00,SW,235,4.0,4.0,255,0.00,,,0.00,0,Wunderground v.1.15,2013-07-16 17:45:00,
2013-07-16 10:55:00,87.9,-99.9,20.00,West,267,5.0,5.0,255,0.00,,,0.00,0,Wunderground v.1.15,2013-07-16 17:55:00,
2013-07-16 11:00:00,92.1,-99.9,20.00,West,267,12.0,12.0,255,0.00,,,0.00,0,Wunderground v.1.15,2013-07-16 18:00:00,
2013-07-16 11:10:00,92.1,-99.9,20.00,West,267,7.0,7.0,255,0.00,,,0.00,0,Wunderground v.1.15,2013-07-16 18:10:00,
2013-07-16 11:20:00,93.7,-99.9,20.00,West,276,6.0,6.0,255,0.00,,,0.00,0,Wunderground v.1.15,2013-07-16 18:20:00,
2013-07-16 11:30:00,86.8,-99.9,20.00,SW,235,9.0,9.0,255,0.00,,,0.00,0,Wunderground v.1.15,2013-07-16 18:30:00,
2013-07-16 11:40:00,85.8,-99.9,20.00,SW,225,9.0,9.0,255,0.00,,,0.00,0,Wunderground v.1.15,2013-07-16 18:40:00,
2013-07-16 11:50:00,83.5,-99.9,20.00,SW,226,7.0,7.0,255,0.00,,,0.00,0,Wunderground v.1.15,2013-07-16 18:50:00,
2013-07-16 11:55:00,82.8,-99.9,20.00,SW,234,8.0,8.0,255,0.00,,,0.00,0,Wunderground v.1.15,2013-07-16 18:55:00,
2013-07-16 12:00:00,85.7,-99.9,20.00,SW,232,5.0,5.0,255,0.00,,,0.00,0,Wunderground v.1.15,2013-07-16 19:00:00,
2013-07-16 12:10:00,85.3,-99.9,20.00,WSW,243,11.0,11.0,255,0.00,,,0.00,0,Wunderground v.1.15,2013-07-16 19:10:00,
2013-07-16 12:20:00,87.1,-99.9,20.00,WSW,247,6.0,6.0,255,0.00,,,0.00,0,Wunderground v.1.15,2013-07-16 19:20:00,
2013-07-16 12:30:00,86.8,-99.9,20.00,WSW,254,5.0,5.0,255,0.00,,,0.00,0,Wunderground v.1.15,2013-07-16 19:30:00,
2013-07-16 12:40:00,85.5,-99.9,20.00,WSW,237,4.0,4.0,255,0.00,,,0.00,0,Wunderground v.1.15,2013-07-16 19:40:00,
2013-07-16 12:50:00,85.9,-99.9,20.00,SW,226,9.0,9.0,255,0.00,,,0.00,0,Wunderground v.1.15,2013-07-16 19:50:00,
2013-07-16 13:00:00,85.0,-99.9,20.00,SW,234,11.0,11.0,255,0.00,,,0.00,0,Wunderground v.1.15,2013-07-16 20:00:00,
2013-07-16 13:10:00,85.3,-99.9,20.00,SW,225,8.0,8.0,255,0.00,,,0.00,0,Wunderground v.1.15,2013-07-16 20:10:00,
2013-07-16 13:15:00,84.4,-99.9,20.00,SW,222,5.0,8.0,255,0.00,,,0.00,0,Wunderground v.1.15,2013-07-16 20:15:00,
2013-07-16 13:25:00,85.8,-99.9,20.00,SW,227,9.0,9.0,255,0.00,,,0.00,0,Wunderground v.1.15,2013-07-16 20:25:00,
2013-07-16 13:35:00,85.6,-99.9,20.00,SW,234,6.0,6.0,255,0.00,,,0.00,0,Wunderground v.1.15,2013-07-16 20:35:00,
2013-07-16 13:40:00,86.7,-99.9,20.00,WSW,246,9.0,9.0,255,0.00,,,0.00,0,Wunderground v.1.15,2013-07-16 20:40:00,
2013-07-16 13:50:00,82.8,-99.9,20.00,WSW,248,5.0,5.0,255,0.00,,,0.00,0,Wunderground v.1.15,2013-07-16 20:50:00,
2013-07-16 14:00:00,82.0,-99.9,20.00,SW,236,8.0,8.0,255,0.00,,,0.00,0,Wunderground v.1.15,2013-07-16 21:00:00,
2013-07-16 14:10:00,80.1,-99.9,20.00,SSW,206,4.0,4.0,255,0.00,,,0.00,0,Wunderground v.1.15,2013-07-16 21:10:00,
2013-07-16 14:15:00,78.7,-99.9,20.00,SW,231,8.0,8.0,255,0.00,,,0.00,0,Wunderground v.1.15,2013-07-16 21:15:00,
2013-07-16 14:25:00,78.3,-99.9,20.00,SW,236,5.0,5.0,255,0.00,,,0.00,0,Wunderground v.1.15,2013-07-16 21:25:00,
2013-07-16 14:35:00,80.7,-99.9,20.00,SW,234,9.0,9.0,255,0.00,,,0.00,0,Wunderground v.1.15,2013-07-16 21:35:00,
2013-07-16 14:40:00,83.3,-99.9,20.00,SSW,209,6.0,6.0,255,0.00,,,0.00,0,Wunderground v.1.15,2013-07-16 21:40:00,
2013-07-16 14:50:00,81.5,-99.9,20.00,SW,225,5.0,5.0,255,0.00,,,0.00,0,Wunderground v.1.15,2013-07-16 21:50:00,
2013-07-16 15:00:00,83.1,-99.9,20.00,SW,222,4.0,4.0,255,0.00,,,0.00,0,Wunderground v.1.15,2013-07-16 22:00:00,
2013-07-16 15:10:00,83.2,-99.9,20.00,SW,224,9.0,9.0,255,0.00,,,0.00,0,Wunderground v.1.15,2013-07-16 22:10:00,
2013-07-16 15:15:00,81.2,-99.9,20.00,SW,228,9.0,9.0,255,0.00,,,0.00,0,Wunderground v.1.15,2013-07-16 22:15:00,
2013-07-16 15:25:00,80.9,-99.9,20.00,SW,229,6.0,9.0,255,0.00,,,0.00,0,Wunderground v.1.15,2013-07-16 22:25:00,
2013-07-16 15:35:00,81.2,-99.9,20.00,WSW,251,12.0,12.0,255,0.00,,,0.00,0,Wunderground v.1.15,2013-07-16 22:35:00,
2013-07-16 15:40:00,81.1,-99.9,20.00,WSW,237,8.0,8.0,255,0.00,,,0.00,0,Wunderground v.1.15,2013-07-16 22:40:00,
2013-07-16 15:50:00,81.6,-99.9,20.00,WSW,251,9.0,9.0,255,0.00,,,0.00,0,Wunderground v.1.15,2013-07-16 22:50:00,
2013-07-16 16:00:00,81.9,-99.9,20.00,WSW,244,10.0,10.0,255,0.00,,,0.00,0,Wunderground v.1.15,2013-07-16 23:00:00,
2013-07-16 16:10:00,80.3,-99.9,20.00,WSW,240,11.0,11.0,255,0.00,,,0.00,0,Wunderground v.1.15,2013-07-16 23:10:00,
2013-07-16 16:20:00,78.0,-99.9,20.00,WSW,238,6.0,6.0,255,0.00,,,0.00,0,Wunderground v.1.15,2013-07-16 23:20:00,
2013-07-16 16:30:00,77.4,-99.9,20.00,WSW,240,6.0,6.0,255,0.00,,,0.00,0,Wunderground v.1.15,2013-07-16 23:30:00,
2013-07-16 16:35:00,76.6,-99.9,20.00,SW,231,5.0,6.0,255,0.00,,,0.00,0,Wunderground v.1.15,2013-07-16 23:35:00,
2013-07-16 16:45:00,75.8,-99.9,20.00,SW,233,2.0,6.0,255,0.00,,,0.00,0,Wunderground v.1.15,2013-07-16 23:45:00,
2013-07-16 16:55:00,75.0,-99.9,20.00,SW,219,8.0,11.0,255,0.00,,,0.00,0,Wunderground v.1.15,2013-07-16 23:55:00,
2013-07-16 17:00:00,75.2,-99.9,20.00,WSW,243,5.0,5.0,255,0.00,,,0.00,0,Wunderground v.1.15,2013-07-17 00:00:00,
2013-07-16 17:10:00,75.4,-99.9,20.00,SW,235,5.0,5.0,255,0.00,,,0.00,0,Wunderground v.1.15,2013-07-17 00:10:00,
2013-07-16 17:20:00,74.1,-99.9,20.00,SW,215,5.0,5.0,255,0.00,,,0.00,0,Wunderground v.1.15,2013-07-17 00:20:00,
2013-07-16 17:30:00,73.2,-99.9,20.00,SW,217,3.0,3.0,255,0.00,,,0.00,0,Wunderground v.1.15,2013-07-17 00:30:00,
2013-07-16 17:35:00,72.8,-99.9,20.00,SW,220,5.0,5.0,255,0.00,,,0.00,0,Wunderground v.1.15,2013-07-17 00:35:00,
2013-07-16 17:45:00,71.1,-99.9,20.00,South,183,4.0,6.0,255,0.00,,,0.00,0,Wunderground v.1.15,2013-07-17 00:45:00,
2013-07-16 17:55:00,71.2,-99.9,20.00,ESE,121,4.0,4.0,255,0.00,,,0.00,0,Wunderground v.1.15,2013-07-17 00:55:00,
2013-07-16 18:00:00,69.8,-99.9,20.00,East,87,0.0,0.0,255,0.00,,,0.00,0,Wunderground v.1.15,2013-07-17 01:00:00,
2013-07-16 18:10:00,72.3,-99.9,20.00,East,87,0.0,0.0,255,0.00,,,0.00,0,Wunderground v.1.15,2013-07-17 01:10:00,
2013-07-16 18:20:00,74.9,-99.9,20.00,NW,308,10.0,10.0,255,0.00,,,0.00,0,Wunderground v.1.15,2013-07-17 01:20:00,
2013-07-16 18:30:00,69.3,-99.9,20.00,SE,142,3.0,3.0,255,0.00,,,0.00,0,Wunderground v.1.15,2013-07-17 01:30:00,
2013-07-16 18:40:00,70.2,-99.9,20.00,South,178,7.0,7.0,255,0.00,,,0.00,0,Wunderground v.1.15,2013-07-17 01:40:00,
2013-07-16 18:50:00,70.8,-99.9,20.00,South,171,0.0,0.0,255,0.00,,,0.00,0,Wunderground v.1.15,2013-07-17 01:50:00,
2013-07-16 19:00:00,70.5,-99.9,20.00,WSW,252,7.0,7.0,255,0.00,,,0.00,0,Wunderground v.1.15,2013-07-17 02:00:00,
2013-07-16 19:10:00,69.9,-99.9,20.00,SW,235,0.0,0.0,255,0.00,,,0.00,0,Wunderground v.1.15,2013-07-17 02:10:00,
2013-07-16 19:20:00,68.6,-99.9,20.00,SW,220,0.0,0.0,255,0.00,,,0.00,0,Wunderground v.1.15,2013-07-17 02:20:00,
2013-07-16 19:25:00,69.3,-99.9,20.00,SW,222,5.0,5.0,255,0.00,,,0.00,0,Wunderground v.1.15,2013-07-17 02:25:00,
2013-07-16 19:35:00,71.9,-99.9,20.00,WSW,258,3.0,4.0,255,0.00,,,0.00,0,Wunderground v.1.15,2013-07-17 02:35:00,
2013-07-16 19:45:00,68.5,-99.9,20.00,SW,229,7.0,7.0,255,0.00,,,0.00,0,Wunderground v.1.15,2013-07-17 02:45:00,
2013-07-16 19:55:00,68.9,-99.9,20.00,WSW,241,4.0,7.0,255,0.00,,,0.00,0,Wunderground v.1.15,2013-07-17 02:55:00,
2013-07-16 20:00:00,68.6,-99.9,20.00,SW,229,3.0,3.0,255,0.00,,,0.00,0,Wunderground v.1.15,2013-07-17 03:00:00,
2013-07-16 20:10:00,69.6,-99.9,20.00,WSW,247,4.0,4.0,255,0.00,,,0.00,0,Wunderground v.1.15,2013-07-17 03:10:00,
2013-07-16 20:20:00,66.9,-99.9,20.00,SW,220,0.0,0.0,255,0.00,,,0.00,0,Wunderground v.1.15,2013-07-17 03:20:00,
2013-07-16 20:30:00,66.7,-99.9,20.00,SW,220,4.0,4.0,255,0.00,,,0.00,0,Wunderground v.1.15,2013-07-17 03:30:00,
2013-07-16 20:40:00,67.1,-99.9,20.00,SW,219,2.0,2.0,255,0.00,,,0.00,0,Wunderground v.1.15,2013-07-17 03:40:00,
2013-07-16 20:50:00,66.7,-99.9,20.00,SW,218,2.0,2.0,255,0.00,,,0.00,0,Wunderground v.1.15,2013-07-17 03:50:00,
2013-07-16 21:00:00,66.5,-99.9,20.00,SW,219,5.0,5.0,255,0.00,,,0.00,0,Wunderground v.1.15,2013-07-17 04:00:00,
2013-07-16 21:05:00,66.2,-99.9,20.00,SW,228,5.0,5.0,255,0.00,,,0.00,0,Wunderground v.1.15,2013-07-17 04:05:00,
2013-07-16 21:15:00,65.6,-99.9,20.00,SW,225,4.0,4.0,255,0.00,,,0.00,0,Wunderground v.1.15,2013-07-17 04:15:00,
2013-07-16 21:25:00,64.7,-99.9,20.00,SSW,200,5.0,6.0,255,0.00,,,0.00,0,Wunderground v.1.15,2013-07-17 04:25:00,
2013-07-16 21:35:00,64.0,-99.9,20.00,SSW,213,4.0,6.0,255,0.00,,,0.00,0,Wunderground v.1.15,2013-07-17 04:35:00,
2013-07-16 21:45:00,63.8,-99.9,20.00,SSW,210,3.0,3.0,255,0.00,,,0.00,0,Wunderground v.1.15,2013-07-17 04:45:00,
2013-07-16 21:55:00,63.4,-99.9,20.00,SSW,207,4.0,4.0,255,0.00,,,0.00,0,Wunderground v.1.15,2013-07-17 04:55:00,
2013-07-16 22:00:00,63.7,-99.9,20.00,SSW,204,3.0,3.0,255,0.00,,,0.00,0,Wunderground v.1.15,2013-07-17 05:00:00,
2013-07-16 22:10:00,64.0,-99.9,20.00,SSW,204,2.0,2.0,255,0.00,,,0.00,0,Wunderground v.1.15,2013-07-17 05:10:00,
2013-07-16 22:15:00,63.9,-99.9,20.00,SSW,205,2.0,2.0,255,0.00,,,0.00,0,Wunderground v.1.15,2013-07-17 05:15:00,
2013-07-16 22:25:00,64.0,-99.9,20.00,SW,215,3.0,3.0,255,0.00,,,0.00,0,Wunderground v.1.15,2013-07-17 05:25:00,
2013-07-16 22:35:00,63.6,-99.9,20.00,SSW,212,4.0,5.0,255,0.00,,,0.00,0,Wunderground v.1.15,2013-07-17 05:35:00,
2013-07-16 22:45:00,63.4,-99.9,20.00,SSW,211,5.0,6.0,255,0.00,,,0.00,0,Wunderground v.1.15,2013-07-17 05:45:00,
2013-07-16 22:55:00,62.8,-99.9,20.00,SSW,204,2.0,5.0,255,0.00,,,0.00,0,Wunderground v.1.15,2013-07-17 05:55:00,
2013-07-16 23:00:00,62.6,-99.9,20.00,SSW,196,5.0,5.0,255,0.00,,,0.00,0,Wunderground v.1.15,2013-07-17 06:00:00,
2013-07-16 23:10:00,62.7,-99.9,20.00,SSW,201,3.0,3.0,255,0.00,,,0.00,0,Wunderground v.1.15,2013-07-17 06:10:00,
2013-07-16 23:20:00,62.1,-99.9,20.00,SW,215,2.0,2.0,255,0.00,,,0.00,0,Wunderground v.1.15,2013-07-17 06:20:00,
2013-07-16 23:25:00,62.2,-99.9,20.00,SW,214,1.0,2.0,255,0.00,,,0.00,0,Wunderground v.1.15,2013-07-17 06:25:00,
2013-07-16 23:35:00,61.3,-99.9,20.00,SSW,208,0.0,2.0,255,0.00,,,0.00,0,Wunderground v.1.15,2013-07-17 06:35:00,
2013-07-16 23:45:00,62.1,-99.9,20.00,WNW,296,4.0,4.0,255,0.00,,,0.00,0,Wunderground v.1.15,2013-07-17 06:45:00,
2013-07-16 23:55:00,62.5,-99.9,20.00,WNW,299,4.0,4.0,255,0.00,,,0.00,0,Wunderground v.1.15,2013-07-17 06:55:00,